Lid_Strength_Index
1 1 1 2 3 3 3 3 8 2 2 7 7 9 8 8 6 6 7 6 8 9 9 10 10 11 9 7 8 10 10 12 14 11 8 9 10 12 11 14 15 13 15 13
1 1 1 2 3 3 5 6 5 2 3 9 9 7 7 6 7 7 7 8 7 7 9 11 9 8 7 7 8 10 10 13 16 13 12 10 12 11 11 11 13 14 16 14
1 1 1 2 2 3 4 5 8 5 4 5 7 8 8 8 6 7 6 7 7 8 9 9 10 9 7 7 7 5 8 13 15 17 13 11 12 12 12 12 14 14 13 11
1 1 1 2 2 3 3 5 6 5 9 7 7 7 7 8 8 6 6 7 8 9 11 10 10 8 8 6 5 7 9 14 13 12 10 10 11 11 10 13 12 14 13 11
0 1 1 1 2 3 2 6 6 5 6 6 7 7 8 8 7 7 8 8 8 8 10 9 10 9 9 10 8 9 9 13 12 12 9 9 11 10 10 10 11 12 12 10
1 0 1 1 1 2 3 2 2 5 6 7 8 8 8 8 7 6 6 7 8 8 7 6 7 7 7 8 10 10 11 13 14 16 10 10 13 11 10 10 9 9 13 10
0 0 -0 0 0 2 2 2 3 6 8 7 8 7 6 7 7 8 6 6 8 5 4 4 5 6 7 7 8 9 11 11 13 16 14 19 11 9 8 9 9 9 9 8
0 -0 -0 -0 -0 1 1 1 3 6 8 6 6 6 7 6 6 7 6 6 5 5 6 9 11 10 11 9 8 8 8 11 14 16 16 12 10 9 10 11 11 8 9 8
0 -0 -1 -0 -0 1 1 1 0 4 7 8 5 6 6 8 8 7 6 4 4 5 7 10 15 16 13 13 11 8 8 9 13 14 17 18 12 8 6 7 14 7 7 8
1 -0 -1 -1 -0 0 1 1 -0 3 7 4 4 7 7 5 7 8 7 6 6 5 9 13 15 15 12 15 15 14 13 13 16 15 16 13 9 7 6 13 14 8 7 7
1 0 -0 -1 -1 -0 1 1 -1 2 5 4 3 3 5 5 6 9 7 7 7 8 11 12 13 14 13 13 12 12 13 15 16 14 16 17 7 8 12 9 7 6 7 7
1 0 -0 -0 -0 0 2 2 -1 -1 4 4 1 1 1 2 2 5 5 7 7 7 9 10 11 13 11 12 15 9 14 12 14 13 13 8 7 8 6 6 7 7 8 7
1 1 -0 -0 -0 -0 1 2 1 1 4 4 4 4 2 1 1 1 7 6 5 6 5 7 9 13 10 14 14 11 10 8 12 11 9 8 8 7 7 6 7 7 7 7
1 1 0 -0 -0 -0 1 2 1 1 3 7 6 1 2 0 1 1 2 3 3 4 5 7 9 11 8 11 10 12 10 10 11 11 9 9 8 8 7 7 6 6 6 6
1 1 1 0 -0 0 1 0 -0 -0 4 8 6 3 2 2 2 2 2 3 4 5 7 8 10 7 8 8 9 11 8 10 11 12 10 9 9 7 7 7 7 6 7 7
1 1 0 0 1 1 1 4 1 0 0 5 9 3 3 2 2 3 3 3 4 5 6 7 6 5 8 11 11 8 7 6 6 8 6 7 7 7 6 7 7 7 7 6
1 1 0 0 0 1 3 4 2 2 0 5 8 8 4 3 3 4 4 4 5 5 6 8 7 7 7 10 13 8 6 6 5 5 5 7 6 8 7 7 7 7 7 6
2 1 1 1 1 2 3 0 1 1 2 4 9 9 7 3 6 7 4 6 6 6 7 7 8 7 8 12 8 7 6 5 5 5 4 5 4 6 6 6 7 8 8 7
2 1 1 2 3 3 2 1 1 2 3 8 8 10 11 4 6 6 6 6 9 6 8 8 7 10 12 9 7 7 5 6 6 5 5 5 5 5 6 6 7 9 9 7
2 2 4 5 2 1 2 4 6 6 5 5 9 6 9 6 7 8 9 9 9 11 9 6 10 11 7 6 5 5 5 4 4 6 7 6 6 5 6 6 7 8 8 7
3 4 5 3 1 2 4 7 8 7 9 7 7 7 9 5 9 9 8 11 9 13 11 10 11 12 8 5 5 4 4 4 4 4 4 4 4 5 5 6 6 7 7 8
3 3 1 1 4 6 8 9 8 9 10 7 8 7 6 6 5 9 8 10 10 13 8 11 14 9 6 5 4 4 4 3 3 3 3 3 3 3 4 5 6 6 7 7
0 3 5 6 7 12 11 13 11 10 7 7 6 8 6 6 6 8 9 11 12 7 11 13 10 7 5 5 4 4 3 3 3 3 3 2 3 2 3 4 5 5 6 6
5 7 12 9 10 9 9 9 9 7 7 6 6 7 8 6 8 8 11 9 9 12 14 13 10 7 5 5 4 4 4 4 4 3 3 3 3 3 3 3 3 5 6 6
6 6 12 9 7 7 6 6 6 5 5 6 6 6 7 8 9 8 10 11 12 12 12 10 7 6 5 5 4 4 4 4 4 3 3 3 3 3 3 3 2 4 5 6
5 5 8 7 8 8 6 6 6 4 4 4 5 7 8 9 10 10 12 11 13 10 8 6 6 5 5 4 4 4 3 4 3 3 3 3 3 3 3 3 3 2 4 5
6 7 5 6 7 7 5 5 5 3 5 7 7 9 9 7 10 11 9 10 8 7 6 5 5 5 4 4 4 3 3 3 3 3 3 3 3 3 3 4 3 2 2 3